[[{"header":{"parameterUnit":"m.s-1","parameterCategory":1,"la1":30.2991,"la2":30.254,"lo1":-89.0895,"lo2":-89.0444,"dy":0.0017,"dx":0.0017,"nx":28,"ny":28,"refTime":"2024-07-12T03:00:00:Z","depth":0,"parameterNumber":2,"parameterNumberName":"U-component_of_WINDS"},"data":[0,0,0,0,0,0,0,0,0,0,0,0,0,0,0,0,0,0,0,0,0,0,0,0,0,0,0,0,0,0,0,0,0,0,0,0,0,0,0,0,0,0,0,0,0,0,0,0,0,0,0,0,0,0,0,0,0,0,0.5269,0.527,0,0.5342,0.5343,0.5344,0.5364,0.5363,0.5363,0.5363,0.5439,0.5441,0.5444,0,0,0,0,0,0,0,0,0,0,0,0,0,0.5148,0.515,0.5269,0.527,0.5271,0.5342,0.5343,0.5344,0.5364,0.5363,0.5363,0.5362,0.5438,0.5441,0.5444,0,0,0,0,0,0,0,0,0,0,0,0,0,0.5209,0.5151,0.5269,0.5289,0.5292,0.5342,0.5343,0.5344,0.5364,0.5363,0.5363,0.5362,0.5437,0.5441,0.5444,0.548,0,0,0.5455,0.5457,0,0,0,0,0,0,0,0,0.5205,0.5213,0.5285,0.5288,0.5291,0.5343,0.5328,0.539,0.5364,0.5337,0.5363,0.5362,0.5408,0.5414,0.5429,0.5483,0.5486,0.5456,0.5458,0.5459,0.546,0,0,0,0,0,0,0,0.5201,0.521,0.5298,0.5286,0.529,0.5295,0.5303,0.534,0.5375,0.5339,0.5341,0.5349,0.5409,0.5425,0.5431,0.5488,0.5456,0.5459,0.5461,0.5462,0.5576,0.5576,0,0,0,0,0,0,0.5193,0.5206,0.5296,0.53,0.5246,0.5298,0.5307,0.5327,0.5375,0.5381,0.5349,0.535,0.5419,0.5426,0.5434,0.5479,0.5459,0.5463,0.5465,0.5575,0.5576,0.5577,0,0,0,0,0,0,0.519,0.5201,0.5293,0.5254,0.5266,0.5301,0.5323,0.5329,0.5345,0.5382,0.5389,0.5359,0.5419,0.5428,0.5468,0.5482,0.5464,0.5468,0.5574,0.5575,0.5576,0.5569,0,0,0,0,0,0,0.5187,0.52,0.5213,0.5254,0.5268,0.5325,0.5324,0.5331,0.5351,0.5352,0.5394,0.54,0.5419,0.5463,0.5472,0.5486,0.5471,0.5573,0.5574,0.5576,0.5568,0.557,0.5571,0,0,0,0,0,0.5182,0.5208,0.5214,0.5224,0.5285,0.5326,0.5334,0.5356,0.5352,0.5366,0.539,0.5399,0.5479,0.5466,0.5477,0.5493,0.5572,0.5574,0.5576,0.5567,0.5569,0.5571,0,0,0,0,0,0,0.5168,0.5214,0.522,0.526,0.5289,0.5329,0.5348,0.5357,0.5388,0.5388,0.5414,0.5423,0.5461,0.5481,0.5467,0.553,0.5526,0.553,0.5515,0.5518,0.5519,0.5514,0.5474,0,0,0,0,0,0.517,0.5199,0.5237,0.5268,0.5283,0.5313,0.5331,0.5345,0.5377,0.5389,0.5416,0.5447,0.5479,0.5499,0.5531,0.5571,0.5581,0.5587,0.5589,0.559,0.5593,0.5616,0.562,0.5583,0.5583,0.5583,0,0,0.5173,0.5201,0.5218,0.5266,0.529,0.532,0.5323,0.5354,0.5377,0.5394,0.5433,0.5454,0.549,0.553,0.5549,0.5548,0.5605,0.5592,0.5593,0.5595,0.5619,0.5622,0.5625,0.5584,0.5584,0.5584,0,0,0.5194,0.5219,0.5248,0.5272,0.5308,0.5328,0.5335,0.5374,0.5389,0.5428,0.5442,0.547,0.5524,0.555,0.5569,0.5601,0.561,0.5611,0.5619,0.5641,0.5644,0.5647,0.5658,0.5662,0.5614,0.5614,0.5614,0,0.5194,0.5239,0.5261,0.5292,0.5313,0.533,0.536,0.5383,0.5428,0.5442,0.544,0.5509,0.5534,0.5581,0.5589,0.5604,0.5614,0.5606,0.5642,0.5645,0.5647,0.5659,0.5663,0.5614,0.5614,0.5614,0.5614,0,0.5237,0.5268,0.5288,0.533,0.5354,0.5384,0.5411,0.5432,0.5445,0.5465,0.5506,0.5537,0.5575,0.5587,0.5599,0.5636,0.5634,0.5636,0.5632,0.565,0.5662,0.5666,0.5613,0.5613,0.5614,0.5614,0,0,0.5251,0.5306,0.5313,0.5333,0.5375,0.54,0.5431,0.5468,0.5486,0.5517,0.5544,0.559,0.5593,0.5616,0.5631,0.5651,0.5675,0.5651,0.5653,0.5655,0.5717,0.5715,0.572,0.5681,0.5682,0.5683,0.5714,0,0.5278,0.5335,0.5356,0.5402,0.5432,0.5448,0.5476,0.5505,0.5525,0.5553,0.5575,0.5608,0.5609,0.5623,0.5643,0.5667,0.5688,0.5665,0.5707,0.5708,0.5698,0.5726,0.5724,0.5752,0.5719,0.572,0.572,0,0.5317,0.5348,0.5397,0.5436,0.5449,0.5473,0.5509,0.5536,0.557,0.5583,0.5608,0.5623,0.5657,0.5651,0.5699,0.5683,0.5702,0.5717,0.5718,0.5723,0.5715,0.5731,0.5762,0.5766,0.5727,0.5727,0.5726,0,0.5323,0.5377,0.5414,0.543,0.5476,0.5493,0.5513,0.5546,0.5567,0.5599,0.5613,0.5648,0.5668,0.5695,0.5719,0.5712,0.5765,0.5761,0.5778,0.5777,0.5788,0.5787,0.5822,0.5799,0.5799,0.5799,0.5799,0,0.5351,0.538,0.5417,0.5439,0.5473,0.5497,0.553,0.5552,0.5581,0.5608,0.5625,0.565,0.568,0.571,0.5728,0.5766,0.5774,0.5786,0.5791,0.5785,0.5783,0.5797,0.5796,0.58,0.58,0.58,0.58,0,0.5363,0.5389,0.543,0.547,0.5481,0.5504,0.5539,0.5561,0.5582,0.5617,0.5626,0.5659,0.5695,0.5721,0.5767,0.578,0.582,0.5825,0.5808,0.5811,0.5826,0.5824,0.5871,0.5879,0.5851,0.5851,0.5852,0,0.5379,0.5402,0.5445,0.5464,0.5484,0.5515,0.5537,0.5562,0.5584,0.5625,0.5643,0.5679,0.571,0.5766,0.5795,0.583,0.5836,0.585,0.5842,0.5835,0.5837,0.5835,0.5838,0.5851,0.5852,0.5852,0.5852,0,0.5406,0.5417,0.5448,0.5483,0.5508,0.5537,0.5566,0.5582,0.5612,0.5636,0.5673,0.5696,0.5744,0.578,0.5819,0.584,0.5851,0.5854,0.586,0.5854,0.5844,0.585,0.5812,0.5853,0.5853,0.5853,0.5853,0.5853,0.5421,0.5442,0.5476,0.5509,0.5534,0.5561,0.5584,0.5608,0.5639,0.5679,0.5692,0.573,0.5764,0.5817,0.5838,0.5869,0.5869,0.5877,0.5879,0.5881,0.588,0.5839,0.5876,0.5876,0.5876,0.5876,0.5876,0,0.5448,0.547,0.5501,0.5541,0.5568,0.5576,0.5609,0.5631,0.5664,0.5694,0.5724,0.5766,0.5802,0.5833,0.587,0.5888,0.5895,0.5897,0.5896,0.5901,0.5878,0.587,0.5892,0.5892,0.5892,0.5892,0.5892,0.5892,0.5465,0.5502,0.5518,0.5567,0.559,0.5626,0.5645,0.567,0.5694,0.5741,0.577,0.579,0.5821,0.5861,0.5894,0.5902,0.5915,0.5917,0.5927,0.5905,0.5903,0.5901,0.5893,0.592,0.592,0.5947,0.5947,0.5947]},{"header":{"parameterUnit":"m.s-1","parameterCategory":1,"la1":30.2991,"la2":30.254,"lo1":-89.0895,"lo2":-89.0444,"dy":0.0017,"dx":0.0017,"nx":28,"ny":28,"refTime":"2024-07-12T03:00:00:Z","depth":0,"parameterNumber":3,"parameterNumberName":"V-component_of_WINDS"},"data":[0,0,0,0,0,0,0,0,0,0,0,0,0,0,0,0,0,0,0,0,0,0,0,0,0,0,0,0,0,0,0,0,0,0,0,0,0,0,0,0,0,0,0,0,0,0,0,0,0,0,0,0,0,0,0,0,0,0,-1.4257,-1.4258,0,-1.4288,-1.4289,-1.4289,-1.4293,-1.4292,-1.4292,-1.4292,-1.4323,-1.4324,-1.4326,0,0,0,0,0,0,0,0,0,0,0,0,0,-1.4202,-1.4203,-1.4257,-1.4258,-1.4258,-1.4288,-1.4289,-1.4289,-1.4293,-1.4292,-1.4292,-1.4291,-1.4323,-1.4324,-1.4326,0,0,0,0,0,0,0,0,0,0,0,0,0,-1.4229,-1.4204,-1.4257,-1.4263,-1.4264,-1.4288,-1.4289,-1.4289,-1.4293,-1.4292,-1.4292,-1.4291,-1.4323,-1.4324,-1.4326,-1.4346,0,0,-1.4331,-1.4332,0,0,0,0,0,0,0,0,-1.4227,-1.4231,-1.4262,-1.4263,-1.4264,-1.4286,-1.4281,-1.4308,-1.4293,-1.4282,-1.4292,-1.4291,-1.4311,-1.4314,-1.4321,-1.4347,-1.4349,-1.4331,-1.4332,-1.4333,-1.4333,0,0,0,0,0,0,0,-1.4226,-1.423,-1.427,-1.4263,-1.4264,-1.4265,-1.4268,-1.4286,-1.4299,-1.4283,-1.4283,-1.4287,-1.4312,-1.4319,-1.4322,-1.4349,-1.4331,-1.4333,-1.4334,-1.4334,-1.4396,-1.4396,0,0,0,0,0,0,-1.4223,-1.4228,-1.4269,-1.427,-1.4244,-1.4266,-1.427,-1.4279,-1.4299,-1.4301,-1.4287,-1.4287,-1.4316,-1.432,-1.4323,-1.4349,-1.4333,-1.4335,-1.4336,-1.4395,-1.4396,-1.4396,0,0,0,0,0,0,-1.4221,-1.4226,-1.4267,-1.4249,-1.4255,-1.4268,-1.4278,-1.428,-1.4288,-1.4302,-1.4304,-1.4292,-1.4316,-1.432,-1.434,-1.435,-1.4335,-1.4337,-1.4394,-1.4395,-1.4396,-1.44,0,0,0,0,0,0,-1.422,-1.4226,-1.4233,-1.425,-1.4256,-1.4284,-1.4279,-1.4281,-1.4291,-1.4291,-1.4307,-1.431,-1.4316,-1.4338,-1.4342,-1.4352,-1.4338,-1.4393,-1.4395,-1.4396,-1.4399,-1.4401,-1.4402,0,0,0,0,0,-1.4218,-1.4232,-1.4233,-1.4238,-1.4265,-1.4285,-1.4288,-1.4295,-1.4291,-1.4299,-1.4309,-1.4309,-1.4348,-1.434,-1.4345,-1.4355,-1.4393,-1.4394,-1.4396,-1.4398,-1.4401,-1.4402,0,0,0,0,0,0,-1.4216,-1.4234,-1.4236,-1.4256,-1.4269,-1.4285,-1.4295,-1.4297,-1.4311,-1.4311,-1.4319,-1.4323,-1.4343,-1.4351,-1.4342,-1.4376,-1.437,-1.4373,-1.4371,-1.4373,-1.4374,-1.4372,-1.434,0,0,0,0,0,-1.4218,-1.4232,-1.4248,-1.4264,-1.427,-1.4282,-1.429,-1.4295,-1.4309,-1.4314,-1.4325,-1.4338,-1.4354,-1.4363,-1.4378,-1.44,-1.4405,-1.441,-1.4412,-1.4413,-1.4415,-1.4429,-1.4432,-1.4401,-1.4401,-1.4401,0,0,-1.4222,-1.4234,-1.4242,-1.4264,-1.4274,-1.429,-1.4286,-1.4302,-1.4314,-1.4316,-1.4337,-1.4345,-1.4361,-1.4382,-1.4392,-1.439,-1.4425,-1.4415,-1.4416,-1.4417,-1.4431,-1.4434,-1.4437,-1.4402,-1.4402,-1.4401,0,0,-1.4237,-1.4247,-1.4263,-1.4274,-1.429,-1.4298,-1.4302,-1.4318,-1.4324,-1.4345,-1.4348,-1.4362,-1.4388,-1.4399,-1.4408,-1.443,-1.4432,-1.4435,-1.4444,-1.4458,-1.446,-1.4463,-1.4472,-1.4475,-1.4437,-1.4437,-1.4437,0,-1.424,-1.4263,-1.427,-1.4287,-1.4297,-1.4301,-1.4318,-1.4328,-1.4348,-1.4355,-1.4352,-1.4386,-1.4396,-1.4422,-1.4427,-1.4434,-1.444,-1.4433,-1.4459,-1.4462,-1.4464,-1.4473,-1.4476,-1.4437,-1.4437,-1.4437,-1.4437,0,-1.4267,-1.4283,-1.4293,-1.4314,-1.4325,-1.4341,-1.4352,-1.4363,-1.4367,-1.4375,-1.4397,-1.441,-1.4429,-1.4435,-1.4438,-1.4461,-1.4459,-1.4457,-1.4451,-1.4467,-1.4476,-1.4479,-1.4438,-1.4438,-1.4438,-1.4437,0,0,-1.4281,-1.4306,-1.431,-1.4321,-1.434,-1.4352,-1.4369,-1.4388,-1.4398,-1.4412,-1.4427,-1.445,-1.4449,-1.446,-1.4465,-1.4477,-1.4495,-1.4474,-1.4474,-1.4478,-1.4524,-1.4526,-1.453,-1.4496,-1.4497,-1.4498,-1.4523,0,-1.4299,-1.433,-1.4338,-1.4365,-1.4381,-1.4385,-1.4401,-1.4415,-1.4423,-1.4438,-1.4448,-1.4465,-1.4461,-1.4468,-1.448,-1.4491,-1.4505,-1.4489,-1.4512,-1.4513,-1.4509,-1.4534,-1.4536,-1.4559,-1.4526,-1.4527,-1.4527,0,-1.4325,-1.4341,-1.4369,-1.4388,-1.4395,-1.4408,-1.4427,-1.4441,-1.4457,-1.4463,-1.4476,-1.448,-1.45,-1.4492,-1.452,-1.4509,-1.4519,-1.4526,-1.4527,-1.453,-1.4521,-1.4539,-1.4566,-1.457,-1.4532,-1.4532,-1.4531,0,-1.4334,-1.4362,-1.4383,-1.4392,-1.4414,-1.4424,-1.4433,-1.4449,-1.4461,-1.4477,-1.4485,-1.4503,-1.4513,-1.4528,-1.4537,-1.4531,-1.4565,-1.4558,-1.4571,-1.4571,-1.4578,-1.4578,-1.4609,-1.4583,-1.4583,-1.4583,-1.4583,0,-1.4354,-1.4372,-1.4388,-1.4401,-1.4421,-1.4431,-1.4451,-1.4461,-1.4476,-1.4491,-1.4496,-1.4511,-1.4523,-1.4539,-1.4547,-1.457,-1.4574,-1.458,-1.4582,-1.458,-1.4579,-1.4587,-1.4586,-1.4584,-1.4583,-1.4583,-1.4583,0,-1.4368,-1.438,-1.4403,-1.4423,-1.4428,-1.4443,-1.446,-1.4473,-1.4483,-1.4503,-1.4508,-1.4523,-1.4543,-1.4554,-1.4579,-1.4584,-1.461,-1.461,-1.4605,-1.4606,-1.4619,-1.4618,-1.4657,-1.4663,-1.4632,-1.4632,-1.4632,0,-1.4381,-1.4394,-1.4416,-1.4428,-1.4438,-1.4455,-1.4467,-1.4478,-1.449,-1.4511,-1.4523,-1.4543,-1.456,-1.4592,-1.4605,-1.4625,-1.4627,-1.4639,-1.463,-1.4628,-1.4629,-1.4628,-1.4631,-1.4641,-1.4641,-1.4641,-1.4642,0,-1.4402,-1.4408,-1.4425,-1.4445,-1.4459,-1.4475,-1.4491,-1.45,-1.4514,-1.4527,-1.4548,-1.4562,-1.4588,-1.4609,-1.463,-1.4641,-1.4644,-1.4644,-1.4649,-1.4648,-1.4644,-1.4648,-1.461,-1.4644,-1.4643,-1.4643,-1.4643,-1.4643,-1.4417,-1.443,-1.4448,-1.4468,-1.4481,-1.4496,-1.4511,-1.4523,-1.454,-1.4563,-1.4568,-1.4591,-1.4609,-1.4637,-1.4649,-1.4667,-1.4665,-1.4671,-1.4672,-1.4674,-1.4676,-1.4641,-1.4671,-1.4671,-1.4671,-1.4671,-1.4671,0,-1.444,-1.4452,-1.447,-1.4493,-1.4509,-1.4511,-1.4529,-1.4542,-1.4562,-1.4579,-1.4596,-1.4621,-1.4642,-1.4658,-1.4679,-1.4691,-1.4693,-1.4696,-1.4696,-1.4699,-1.4675,-1.467,-1.4694,-1.4694,-1.4694,-1.4694,-1.4694,-1.4694,-1.4454,-1.4477,-1.4485,-1.4516,-1.4528,-1.4551,-1.4561,-1.4576,-1.4589,-1.4617,-1.4635,-1.4645,-1.4662,-1.4685,-1.4705,-1.4709,-1.4717,-1.4721,-1.4725,-1.4703,-1.47,-1.4698,-1.4693,-1.4722,-1.4722,-1.4747,-1.4748,-1.4748]}]]